Canby, MN

2:51 AM CST on February 24, 2017 (GMT -0600)
Canby

Weather History for KCNB - December, 2012

Change the Weather History Date:

Monday, December 24, 2012

  Actual Average (KMML) Record (KMML)
Temperature  
Mean Temperature 2 °F -  
Max Temperature 9 °F 21 °F 48 °F (2011)
Min Temperature -5 °F 2 °F -23 °F (1983)
Degree Days  
Heating Degree Days 63    
Moisture  
Dew Point -3 °F    
Average Humidity 84    
Maximum Humidity 92    
Minimum Humidity 77    
Precipitation  
Precipitation 0.00 in - - ()
Sea Level Pressure  
Sea Level Pressure 30.19 in    
Wind  
Wind Speed 12 mph (NW)    
Max Wind Speed 17 mph    
Max Gust Speed 23 mph    
Visibility 9 miles    
Events Snow    
Averages and records for this station are not official NWS values.
T = Trace of Precipitation, MM = Missing Value Source: NWS Daily Summary

Daily Weather History Graph

Daily Weather History Graph

Search for Another Location

Airport or City:

Trip Planner

Search our weather history database for the weather conditions in past years. The results will help you decide how hot, cold, wet, or windy it might be!

Date:

Astronomy

Dec. 24, 2012 Rise Set
Actual Time 8:00 AM CST 4:49 PM CST
Civil Twilight 7:27 AM CST 5:22 PM CST
Nautical Twilight 6:50 AM CST 5:59 PM CST
Astronomical Twilight 6:14 AM CST 6:35 PM CST
Moon 2:20 PM CST 4:36 AM CST
Length of Visible Light 9h 55m
Length of Day
8h 48m
Waxing Gibbous, 88% of the Moon is Illuminated
Dec 24
Waxing Gibbous
Dec 28
Full
Jan 4
Last Quarter
Jan 11
New
Jan 18
First Quarter

Hourly Weather History & Observations

Time (CST) Temp. Windchill Dew Point Humidity Pressure Visibility Wind Dir Wind Speed Gust Speed Precip Events Conditions
12:15 AM 8.6 °F -3.7 °F 6.8 °F 92% 30.04 in 10.0 mi NW 8.1 mph - N/A   Overcast
12:35 AM 9.0 °F -4.2 °F 6.8 °F 91% 30.04 in 10.0 mi NW 9.2 mph - N/A Snow Light Snow
12:55 AM 9.0 °F -4.2 °F 6.8 °F 91% 30.03 in 10.0 mi NW 9.2 mph - N/A Snow Light Snow
1:15 AM 9.0 °F -3.2 °F 6.8 °F 91% 30.03 in 10.0 mi NNW 8.1 mph - N/A Snow Light Snow
1:35 AM 9.0 °F -4.2 °F 6.8 °F 91% 30.03 in 10.0 mi NW 9.2 mph - N/A   Overcast
1:55 AM 9.1 °F -4.9 °F 6.8 °F 90% 30.03 in 10.0 mi NW 10.4 mph - N/A   Overcast
2:15 AM 9.0 °F -6.6 °F 6.8 °F 91% 30.03 in 10.0 mi NW 12.7 mph - N/A Snow Light Snow
2:35 AM 9.0 °F -7.3 °F 6.6 °F 90% 30.04 in 7.0 mi NNW 13.8 mph - N/A Snow Light Snow
2:55 AM 9.0 °F -6.6 °F 6.6 °F 90% 30.05 in 7.0 mi NNW 12.7 mph - N/A Snow Light Snow
3:16 AM 8.6 °F -8.3 °F 6.3 °F 90% 30.06 in 7.0 mi NW 15.0 mph - N/A Snow Light Snow
3:35 AM 8.6 °F -7.7 °F 5.9 °F 89% 30.06 in 5.0 mi NW 13.8 mph - N/A Snow Light Snow
3:56 AM 8.6 °F -7.0 °F 5.9 °F 89% 30.07 in 4.0 mi NW 12.7 mph 18.4 mph N/A Snow Light Snow
4:15 AM 8.4 °F -7.9 °F 5.7 °F 89% 30.07 in 4.0 mi NW 13.8 mph - N/A Snow Light Snow
4:35 AM 8.1 °F -9.0 °F 5.2 °F 88% 30.07 in 3.0 mi NW 15.0 mph - N/A Snow Light Snow
4:56 AM 7.7 °F -9.5 °F 5.0 °F 89% 30.07 in 3.0 mi NW 15.0 mph - N/A Snow Light Snow
5:15 AM 7.7 °F -7.4 °F 4.8 °F 88% 30.08 in 4.0 mi NW 11.5 mph - N/A Snow Light Snow
5:35 AM 7.3 °F -9.3 °F 4.1 °F 87% 30.07 in 5.0 mi NNW 13.8 mph 20.7 mph N/A Snow Light Snow
5:55 AM 6.6 °F -10.9 °F 3.7 °F 88% 30.08 in 7.0 mi NNW 15.0 mph 19.6 mph N/A Snow Light Snow
6:15 AM 6.4 °F -10.5 °F 3.4 °F 87% 30.09 in 7.0 mi NW 13.8 mph 19.6 mph N/A Snow Light Snow
6:35 AM 5.7 °F -12.0 °F 2.7 °F 87% 30.10 in 5.0 mi NW 15.0 mph 20.7 mph N/A Snow Light Snow
6:55 AM 4.5 °F -14.3 °F 1.2 °F 86% 30.11 in 7.0 mi NW 16.1 mph - N/A Snow Light Snow
7:15 AM 2.5 °F -14.8 °F -1.1 °F 85% 30.12 in 7.0 mi NW 12.7 mph - N/A   Scattered Clouds
7:35 AM 0.9 °F -16.8 °F -2.6 °F 86% 30.13 in 10.0 mi NW 12.7 mph - N/A   Scattered Clouds
7:55 AM 0.3 °F -18.3 °F -3.1 °F 85% 30.13 in 10.0 mi NW 13.8 mph - N/A   Mostly Cloudy
8:15 AM -0.6 °F -18.6 °F -4.0 °F 85% 30.14 in 10.0 mi NW 12.7 mph - N/A   Scattered Clouds
8:35 AM -0.6 °F -19.4 °F -4.4 °F 84% 30.15 in 10.0 mi NW 13.8 mph 19.6 mph N/A   Clear
8:55 AM -0.8 °F -18.9 °F -4.5 °F 84% 30.15 in 10.0 mi NW 12.7 mph - N/A   Clear
9:15 AM -0.8 °F -20.3 °F -4.9 °F 83% 30.16 in 10.0 mi NW 15.0 mph - N/A   Clear
9:35 AM -0.8 °F -20.3 °F -4.9 °F 83% 30.18 in 10.0 mi NW 15.0 mph 19.6 mph N/A   Clear
9:55 AM -0.8 °F -19.6 °F -5.1 °F 82% 30.19 in 7.0 mi NW 13.8 mph 21.9 mph N/A   Clear
10:16 AM -0.6 °F -21.4 °F -5.3 °F 81% 30.20 in 7.0 mi NW 17.3 mph - N/A   Clear
10:35 AM -0.6 °F -21.4 °F -5.4 °F 80% 30.20 in 5.0 mi NW 17.3 mph 23.0 mph N/A   Haze
10:55 AM -0.6 °F -19.4 °F -5.8 °F 79% 30.21 in 5.0 mi NW 13.8 mph 21.9 mph N/A   Haze
11:15 AM -0.4 °F -19.2 °F -5.6 °F 79% 30.19 in 10.0 mi NW 13.8 mph - N/A   Clear
11:35 AM -0.2 °F -19.6 °F -5.6 °F 78% 30.19 in 10.0 mi NW 15.0 mph - N/A   Clear
11:55 AM 0.1 °F -19.8 °F -5.3 °F 78% 30.18 in 7.0 mi NNW 16.1 mph - N/A   Clear
12:15 PM 0.1 °F -17.7 °F -5.3 °F 78% 30.19 in 10.0 mi NNW 12.7 mph - N/A   Clear
12:35 PM 0.3 °F -18.3 °F -5.3 °F 77% 30.18 in 10.0 mi NNW 13.8 mph 20.7 mph N/A   Clear
12:55 PM 0.5 °F -17.3 °F -5.3 °F 77% 30.19 in 10.0 mi NW 12.7 mph 17.3 mph N/A   Clear
1:16 PM 0.3 °F -16.7 °F -5.3 °F 77% 30.19 in 10.0 mi NW 11.5 mph - N/A   Clear
1:35 PM 0.5 °F -18.0 °F -5.3 °F 77% 30.21 in 10.0 mi NW 13.8 mph - N/A   Clear
1:55 PM 0.3 °F -17.5 °F -5.4 °F 77% 30.20 in 10.0 mi NW 12.7 mph - N/A   Clear
2:15 PM 0.3 °F -18.3 °F -5.3 °F 77% 30.19 in 10.0 mi NW 13.8 mph - N/A   Clear
2:35 PM 0.5 °F -18.0 °F -4.9 °F 78% 30.20 in 10.0 mi NNW 13.8 mph - N/A   Clear
2:55 PM 0.5 °F -16.5 °F -4.9 °F 78% 30.21 in 10.0 mi NW 11.5 mph - N/A   Clear
3:15 PM 0.3 °F -18.3 °F -4.9 °F 79% 30.22 in 10.0 mi NW 13.8 mph 18.4 mph N/A   Clear
3:35 PM -0.2 °F -18.9 °F -5.1 °F 80% 30.22 in 10.0 mi NW 13.8 mph - N/A   Clear
3:55 PM -0.8 °F -19.6 °F -5.3 °F 81% 30.23 in 10.0 mi WNW 13.8 mph - N/A   Clear
4:15 PM -1.1 °F -18.5 °F -5.4 °F 82% 30.24 in 10.0 mi NW 11.5 mph 16.1 mph N/A   Clear
4:36 PM -1.7 °F -18.3 °F -5.8 °F 83% 30.25 in 10.0 mi WNW 10.4 mph - N/A   Clear
4:55 PM -2.2 °F -18.0 °F -6.0 °F 84% 30.25 in 10.0 mi NW 9.2 mph - N/A   Clear
5:15 PM -2.2 °F -18.0 °F -6.0 °F 84% 30.25 in 10.0 mi NW 9.2 mph - N/A   Clear
5:35 PM -2.6 °F -17.3 °F -6.3 °F 84% 30.26 in 10.0 mi NW 8.1 mph - N/A   Clear
5:56 PM -2.7 °F -16.2 °F -6.7 °F 83% 30.27 in 10.0 mi NW 6.9 mph - N/A   Clear
6:15 PM -3.5 °F -17.1 °F -7.4 °F 83% 30.27 in 10.0 mi NW 6.9 mph - N/A   Clear
6:35 PM -4.0 °F -17.8 °F -8.0 °F 83% 30.28 in 10.0 mi NW 6.9 mph - N/A   Clear
6:55 PM -3.6 °F -18.6 °F -7.8 °F 82% 30.29 in 10.0 mi NW 8.1 mph - N/A   Clear
7:15 PM -3.1 °F -21.8 °F -7.2 °F 82% 30.30 in 10.0 mi NW 12.7 mph 17.3 mph N/A   Clear
7:35 PM -3.1 °F -20.1 °F -7.2 °F 82% 30.31 in 10.0 mi NW 10.4 mph - N/A   Clear
7:55 PM -3.1 °F -19.1 °F -7.6 °F 81% 30.31 in 10.0 mi NW 9.2 mph - N/A   Clear
8:15 PM -3.5 °F -19.5 °F -7.6 °F 82% 30.30 in 10.0 mi NNW 9.2 mph - N/A   Clear
8:36 PM -4.0 °F -19.0 °F -8.1 °F 82% 30.31 in 10.0 mi NW 8.1 mph - N/A   Clear
8:55 PM -4.4 °F -19.5 °F -8.5 °F 82% 30.31 in 10.0 mi NW 8.1 mph - N/A   Clear
9:15 PM -4.5 °F -20.8 °F -8.5 °F 83% 30.31 in 10.0 mi NW 9.2 mph - N/A   Clear
9:35 PM -4.9 °F -22.3 °F -8.7 °F 84% 30.31 in 10.0 mi NW 10.4 mph - N/A   Clear
9:55 PM -5.1 °F -21.5 °F -8.7 °F 84% 30.32 in 10.0 mi NW 9.2 mph - N/A   Clear
10:15 PM -5.1 °F -21.5 °F -8.5 °F 85% 30.33 in 10.0 mi NW 9.2 mph - N/A   Clear
10:35 PM -5.1 °F -21.5 °F -8.7 °F 84% 30.33 in 10.0 mi NW 9.2 mph - N/A   Clear
10:55 PM -5.4 °F -21.9 °F -9.0 °F 84% 30.35 in 10.0 mi NW 9.2 mph - N/A   Clear
11:15 PM -5.4 °F -21.9 °F -9.0 °F 84% 30.35 in 10.0 mi NW 9.2 mph - N/A   Clear
11:35 PM -5.6 °F -22.2 °F -9.4 °F 84% 30.36 in 10.0 mi NW 9.2 mph - N/A   Clear
11:56 PM -5.8 °F -23.4 °F -9.4 °F 84% 30.37 in 10.0 mi WNW 10.4 mph - N/A   Clear